Regional Weather Roundup
Issued by NWS

Home | Current Version | Previous Version | Graphics & Text | Print | Product List | Glossary On
Versions: 1 2 3 4 5 6 7 8 9 10 11 12 13 14 15 16 17 18 19 20 21 22 23 24 25 26 27 28 29 30 31 32 33 34 35 36 37 38 39 40 41 42 43 44 45 46 47 48 49 50
000
ASUS43 KFSD 030402
RWRSD

WEATHER ROUNDUP FOR SOUTH DAKOTA
NATIONAL WEATHER SERVICE SIOUX FALLS SD
1100 PM CDT THU JUL 02 2015

NOTE: "FAIR" INDICATES FEW OR NO CLOUDS BELOW 12,000 FEET WITH NO
SIGNIFICANT WEATHER AND/OR OBSTRUCTIONS TO VISIBILITY.


SDZ001>005-009-010-012>017-030500-
NORTHWEST AND NORTH CENTRAL SOUTH DAKOTA

CITY           SKY/WX    TMP DP  RH WIND       PRES   REMARKS
BUFFALO          N/A     69  58  67 SE3       30.01R
FAITH            N/A     67  59  75 NE3       30.05R
MOBRIDGE       CLEAR     68  65  90 N5        29.97R
$$

SDZ012>016-024>037-041>051-057-063-072>074-030500-
SOUTHWEST AND SOUTH CENTRAL SOUTH DAKOTA

CITY           SKY/WX    TMP DP  RH WIND       PRES   REMARKS
RAPID CTY ARPT CLEAR     63  58  83 N8        30.10R
PIERRE         CLEAR     66  64  93 S5        29.98R
CUSTER         CLEAR     61  51  70 N3        30.23R
ELLSWORTH AFB  CLEAR     70  58  65 CALM      30.10R
PHILIP         PTCLDY    68  62  81 N8        30.02R
PINE RIDGE     CLEAR     65  58  78 CALM      30.09R
WINNER         FAIR      66  60  81 SE6       30.01R
$$

SDZ004>011-016>023-039-040-030500-
NORTHEAST SOUTH DAKOTA

CITY           SKY/WX    TMP DP  RH WIND       PRES   REMARKS
ABERDEEN       CLEAR     62  59  90 S6        29.98R
WATERTOWN      CLEAR     61  52  72 S3        30.00R
BROOKINGS      CLEAR     61  54  77 S6        30.02S
SISSETON         N/A     61  58  90 CALM      29.96S
$$

SDZ017-020-022-023-036>040-048>070-030500-
SOUTHEAST SOUTH DAKOTA

CITY           SKY/WX    TMP DP  RH WIND       PRES   REMARKS
SIOUX FALLS    CLEAR     60  57  89 CALM      30.01R
HURON          CLEAR     62  59  90 S3        29.99R
CHAMBERLAIN    CLEAR     63  63  99 SE3       30.00R
MITCHELL       CLEAR     63  58  83 S7        30.00S
YANKTON        CLEAR     63  59  88 NE5       29.99R
$$

ABBREVIATIONS USED IN REMARKS
   TC - TEMPERATURE IN CELSIUS
  WCI - WIND CHILL INDEX
   HX - HEAT INDEX
  VSB - VISIBILITY




USA.gov is the U.S. government's official web portal to all federal, state and local government web resources and services.